Location: Devore Heights
(34.2372°N, 117.4156°W)
Time: 15:54:13
(UTC+00:00)

Tiros 1 despin weight - Pass Details

Date: 21 September 2024
Orbit: 573 x 615 km, 48.2° (Epoch: 04 October)

Event Time Altitude Azimuth Distance (km) Brightness Sun altitude
Exits shadow 12:43:46 - 316° (NW) 2,671 ? -11.9°
Reaches altitude 10° 12:46:03 10° 331° (NNW) 1,978 ? -11.4°
Maximum altitude 12:49:17 19° 17° (NNE) 1,482 ? -10.8°
Drops below altitude 10° 12:52:32 10° 63° (ENE) 1,978 ? -10.1°
Sets 12:55:26 0° 81° (E) 2,879 ? -9.5°
